Wind_Speed
21 23 24 26 28 31 33 34 35 34 35 36 38 39 40 40 40 41 41 41 41 42 42 43 44 44 45 46 46 46 46 46 46 46 46 46 47 46 45 45 45 44 45 45
18 21 23 24 26 28 30 31 32 33 33 34 36 38 39 39 39 40 40 40 41 41 41 42 43 44 44 45 45 45 45 45 46 46 46 46 46 46 45 45 45 45 44 45
18 19 21 23 24 27 29 30 32 31 31 32 33 34 36 38 39 39 40 40 41 41 41 42 43 43 44 44 45 46 45 45 45 46 46 47 46 46 45 45 45 45 46 46
16 17 20 22 23 25 27 29 30 31 30 31 32 33 34 36 37 38 39 40 41 41 42 42 43 43 44 45 45 45 45 46 45 45 45 46 46 46 46 46 46 46 47 47
15 17 20 20 22 24 25 26 28 29 30 30 31 32 34 35 36 37 38 39 40 40 41 42 43 43 44 44 45 45 45 45 46 45 45 45 45 45 46 46 47 47 47 47
16 17 18 19 20 22 25 26 26 26 27 28 29 30 31 33 34 35 37 38 39 40 40 41 42 43 43 44 44 45 45 45 46 46 46 46 45 45 46 46 46 47 47 47
17 19 19 19 20 22 24 25 26 26 26 27 27 27 28 30 32 34 35 36 37 38 39 40 41 42 43 43 44 45 45 45 45 45 46 45 45 45 46 46 46 47 47 46
19 20 20 20 21 22 22 23 24 25 26 26 26 27 28 28 29 31 32 34 35 36 38 39 40 41 41 41 42 43 44 44 44 44 44 44 44 44 44 45 45 46 45 45
19 20 21 21 22 22 23 23 23 24 26 26 26 27 27 28 29 30 31 32 33 34 35 36 38 39 40 41 41 42 43 43 43 43 43 43 43 43 44 43 43 43 43 43
19 20 20 20 21 22 22 23 23 24 25 26 26 26 27 27 28 29 30 31 32 32 33 34 35 36 37 39 40 41 41 42 42 42 42 42 42 42 42 41 41 41 41 41
20 20 21 21 22 23 24 24 24 24 25 26 26 27 27 28 28 28 28 29 30 31 32 33 34 34 35 36 37 38 38 39 40 40 41 40 40 40 40 39 39 39 39 39
19 20 21 21 22 23 23 24 24 25 26 27 27 27 27 28 28 28 28 28 29 29 30 31 32 32 33 34 34 35 36 36 36 37 37 37 38 38 38 38 38 39 39 39
18 19 20 20 21 21 22 22 23 24 24 25 26 27 27 27 28 28 29 29 29 29 29 29 29 30 31 32 32 33 33 34 34 34 34 34 35 36 36 37 37 38 38 38
17 18 18 18 19 20 21 21 21 21 22 23 25 25 26 26 27 27 28 28 28 28 28 28 29 29 29 29 30 30 30 31 31 31 31 32 32 33 34 34 35 36 36 37
17 18 17 17 17 18 19 20 20 20 21 22 23 25 25 26 26 26 26 27 28 28 28 28 28 27 27 27 28 28 28 29 30 30 30 30 31 31 31 31 32 32 33 33
18 18 17 18 18 18 19 20 20 21 21 22 23 23 24 25 25 25 25 26 26 27 27 27 27 27 27 27 27 27 28 28 28 29 29 29 29 29 29 29 29 30 30 30
18 18 18 18 19 19 19 19 20 21 21 21 22 22 23 24 24 24 24 24 24 25 26 26 26 26 26 26 26 27 27 27 27 27 28 29 29 29 29 29 29 29 29 29
19 19 19 19 19 19 19 19 20 20 20 21 21 21 22 23 23 23 24 24 25 25 25 26 26 26 26 27 27 26 26 26 26 27 27 28 28 29 29 29 29 28 28 28
18 18 19 19 20 20 20 20 20 21 21 21 21 21 21 22 23 23 23 24 24 25 25 26 26 27 27 27 27 27 27 26 26 26 26 27 27 28 28 28 28 28 28 27
18 18 18 18 18 19 19 19 20 20 20 20 21 21 21 22 22 22 23 23 24 24 25 25 25 26 27 27 27 27 27 26 26 26 26 27 27 27 28 28 27 27 27 27
18 18 18 18 18 18 18 18 19 19 19 19 19 20 21 21 21 22 23 23 23 24 24 25 25 25 26 26 27 27 27 27 27 27 27 27 27 27 27 26 26 26 25 25
18 18 18 19 19 18 18 18 18 19 19 18 19 19 20 20 20 21 22 22 22 23 23 23 24 24 25 26 26 27 27 27 27 27 27 27 27 26 26 25 25 25 24 23
20 19 19 19 19 19 18 18 19 19 19 19 19 19 20 20 20 21 21 22 22 22 22 23 23 23 23 23 24 24 25 25 26 26 26 26 25 25 24 23 23 23 22 22
20 20 20 20 19 19 19 19 19 20 20 20 19 19 20 20 21 21 21 22 22 22 22 22 23 23 22 22 23 23 24 24 24 25 24 24 23 23 22 22 22 22 22 21
20 20 20 20 20 20 20 20 20 20 20 20 20 20 20 21 21 20 20 20 21 21 20 21 21 21 21 21 22 22 22 23 23 23 23 23 23 22 21 21 21 20 20 20
21 20 20 20 20 20 20 20 20 20 20 20 20 21 21 20 20 20 20 20 20 20 20 20 20 20 20 20 20 21 21 21 21 21 21 21 21 21 20 20 19 19 18 18
20 20 20 20 19 19 19 20 19 19 19 19 19 20 20 20 20 19 19 20 20 19 20 20 20 19 19 19 19 19 18 18 18 18 19 19 19 19 19 18 18 17 17 17
Wind_Direction
236 234 234 235 235 236 237 239 242 243 243 243 243 242 241 240 240 241 241 242 242 243 244 244 245 245 246 246 248 249 250 251 252 253 255 256 256 257 258 260 261 263 265 266
236 234 234 235 236 237 237 239 241 242 242 243 244 243 242 242 242 242 242 242 242 243 244 245 245 246 246 247 248 250 251 252 253 254 255 256 257 258 258 260 262 262 264 265
241 239 236 236 238 240 241 242 242 243 244 243 242 242 241 240 240 241 242 243 243 244 245 245 245 246 247 248 249 250 251 253 253 254 255 256 258 259 259 260 262 263 263 264
245 244 244 242 240 242 244 245 244 245 246 245 244 242 241 241 241 241 243 244 244 245 245 245 246 247 247 248 250 251 252 253 254 255 256 257 258 259 260 261 262 263 264 265
251 251 250 247 246 245 246 247 245 245 246 246 246 245 244 243 243 243 244 244 245 246 247 247 248 248 249 249 250 251 252 253 254 256 257 257 258 259 260 261 262 263 264 265
256 256 255 255 253 252 251 250 246 246 246 246 247 246 244 245 245 246 246 246 247 248 248 249 249 250 251 251 251 251 252 253 254 255 257 258 258 259 261 262 263 263 264 265
259 259 258 258 256 253 253 253 249 248 247 249 250 250 248 247 247 248 248 248 249 249 249 250 250 251 251 252 252 252 252 253 254 255 256 257 258 259 261 262 263 264 264 265
262 260 259 259 256 255 258 257 253 250 249 249 249 251 251 251 251 250 250 251 251 251 251 251 251 251 252 252 252 253 253 254 254 255 256 256 258 259 261 262 262 263 264 265
266 263 261 259 258 256 256 257 255 251 250 250 250 252 252 252 252 251 251 252 252 253 252 252 252 252 252 253 253 254 254 254 254 255 255 257 257 259 260 262 262 263 263 264
267 265 263 262 259 257 257 257 255 254 252 250 250 252 253 252 252 252 253 253 253 253 253 253 253 253 254 254 255 255 256 256 256 255 255 256 257 259 260 261 262 262 263 264
268 264 262 262 261 259 258 258 257 257 255 252 250 251 252 251 251 252 253 253 253 253 254 254 255 255 255 255 255 256 256 256 256 256 256 257 258 259 260 261 262 262 263 264
271 267 264 262 260 259 258 258 258 258 257 254 252 252 253 253 253 253 255 256 255 254 255 254 254 254 254 254 255 255 255 255 256 257 256 257 258 259 260 261 262 263 264 265
272 269 267 264 261 260 260 260 260 260 258 257 255 255 254 255 255 255 255 256 256 254 254 254 254 253 253 253 254 255 255 255 255 256 256 257 258 260 261 262 263 264 265 266
272 270 268 267 265 264 263 263 263 261 260 259 257 257 256 256 256 256 257 256 256 255 255 254 254 254 254 253 254 255 255 254 254 255 257 258 260 261 262 263 264 265 266 268
272 270 267 267 267 267 266 265 265 263 262 261 260 259 258 258 258 258 258 257 255 254 254 254 254 254 254 254 254 254 253 254 255 256 258 259 261 262 263 264 265 266 267 269
271 269 267 267 268 269 269 268 268 265 264 263 262 261 260 259 259 259 258 256 254 253 253 253 253 253 253 253 253 253 254 255 256 256 257 259 261 262 264 264 265 267 268 269
271 267 267 268 268 268 268 269 269 268 267 266 264 263 261 260 259 259 258 256 254 253 253 253 252 252 251 251 251 253 254 255 255 256 257 258 260 262 264 264 265 267 269 270
274 271 270 269 267 267 267 268 268 267 267 268 266 264 263 261 260 259 258 257 257 256 255 255 254 252 252 252 253 253 254 255 256 257 259 260 261 262 264 265 266 267 268 268
279 277 274 272 269 268 268 269 270 270 269 269 268 266 265 263 261 260 259 259 258 257 256 256 256 255 254 254 255 255 254 256 257 259 260 262 263 264 264 265 266 267 268 269
279 279 278 275 272 271 270 270 271 272 272 270 269 268 268 265 262 261 261 261 260 259 258 258 258 257 256 256 255 255 254 255 257 258 260 262 264 265 266 266 266 267 268 270
282 280 278 276 275 273 271 271 272 273 273 272 271 270 269 267 265 263 262 262 261 260 259 258 257 258 258 257 256 255 255 256 258 259 261 263 265 266 265 264 264 266 268 268
280 278 278 277 275 276 273 271 269 270 272 272 272 271 270 268 267 265 264 263 261 260 258 257 258 258 258 259 258 257 257 257 258 259 261 263 265 265 264 263 264 265 265 264
279 278 279 278 276 276 274 271 268 268 269 271 272 273 271 270 268 267 264 263 261 260 260 260 260 261 261 259 258 258 258 258 258 259 261 262 263 262 261 261 261 262 262 262
281 279 278 276 276 275 274 271 268 267 268 270 271 272 273 272 271 268 265 262 262 261 261 261 260 261 261 260 259 259 258 257 258 258 259 259 260 260 260 261 261 262 262 261
280 279 278 277 276 276 274 272 270 268 268 269 270 271 272 273 272 269 265 263 262 261 260 261 262 262 261 260 259 259 258 258 258 258 258 257 257 257 258 259 260 261 261 259
279 279 278 277 276 276 275 273 271 270 270 270 270 271 274 275 273 269 266 264 262 261 260 260 261 262 261 260 259 259 258 257 257 256 255 255 255 254 255 256 257 256 255 256
279 279 278 277 276 276 275 273 270 269 270 272 273 274 276 276 275 271 266 264 262 260 259 259 259 260 260 259 258 257 256 255 254 254 254 253 253 253 253 252 250 250 250 252
Height
5570 5573 5575 5578 5581 5583 5585 5588 5591 5594 5597 5601 5603 5606 5610 5613 5617 5620 5624 5627 5631 5634 5638 5641 5644 5647 5650 5653 5656 5659 5662 5664 5667 5669 5671 5673 5674 5676 5677 5679 5680 5681 5681 5682
5565 5567 5569 5572 5575 5577 5579 5581 5584 5586 5590 5592 5593 5596 5600 5603 5607 5610 5614 5617 5620 5624 5627 5630 5633 5636 5639 5642 5644 5647 5650 5653 5655 5657 5659 5661 5663 5664 5666 5667 5668 5669 5670 5670
5561 5562 5563 5566 5569 5570 5572 5574 5577 5579 5583 5583 5585 5588 5591 5594 5597 5600 5604 5607 5610 5613 5616 5619 5622 5625 5627 5630 5633 5635 5638 5640 5643 5645 5647 5649 5651 5652 5654 5655 5656 5657 5658 5658
5556 5558 5558 5563 5563 5564 5566 5568 5569 5572 5574 5576 5577 5579 5582 5584 5587 5590 5593 5596 5599 5602 5605 5608 5611 5613 5616 5619 5621 5624 5626 5628 5630 5633 5635 5637 5639 5640 5642 5643 5644 5645 5646 5646
5551 5551 5553 5556 5557 5557 5558 5561 5562 5564 5566 5568 5569 5571 5574 5576 5578 5580 5583 5586 5588 5591 5594 5597 5599 5602 5604 5607 5609 5612 5614 5616 5618 5621 5623 5625 5627 5628 5629 5630 5632 5633 5633 5634
5546 5546 5547 5551 5551 5551 5552 5554 5555 5557 5558 5560 5561 5564 5566 5567 5569 5571 5573 5576 5578 5581 5583 5585 5588 5590 5593 5595 5598 5600 5602 5604 5606 5608 5611 5612 5614 5616 5617 5618 5619 5619 5620 5621
5541 5540 5542 5544 5544 5544 5547 5548 5548 5549 5550 5552 5554 5556 5558 5558 5560 5562 5564 5566 5568 5570 5572 5575 5577 5579 5581 5584 5586 5588 5590 5592 5594 5596 5598 5600 5602 5603 5604 5605 5606 5607 5608 5608
5535 5535 5538 5537 5537 5539 5540 5540 5540 5541 5543 5545 5546 5548 5549 5550 5551 5553 5554 5556 5558 5560 5562 5564 5566 5568 5570 5572 5574 5576 5578 5580 5582 5584 5586 5588 5589 5590 5591 5592 5593 5594 5595 5596
5531 5532 5531 5530 5530 5531 5532 5533 5533 5534 5536 5537 5538 5540 5541 5542 5543 5544 5546 5547 5548 5550 5552 5553 5555 5557 5559 5561 5562 5564 5566 5568 5570 5572 5574 5575 5577 5578 5579 5580 5580 5581 5582 5583
5525 5525 5525 5524 5524 5524 5525 5526 5526 5527 5528 5529 5530 5532 5533 5534 5535 5536 5537 5538 5539 5540 5542 5543 5545 5546 5548 5550 5551 5553 5555 5556 5558 5560 5562 5563 5565 5566 5567 5568 5569 5569 5570 5571
5518 5518 5518 5518 5518 5518 5518 5518 5519 5519 5520 5521 5522 5523 5525 5526 5526 5527 5528 5529 5530 5531 5533 5534 5535 5536 5537 5539 5540 5542 5544 5545 5547 5548 5550 5552 5553 5554 5555 5556 5557 5558 5559 5559
5512 5512 5512 5512 5511 5511 5511 5511 5511 5512 5512 5513 5514 5515 5516 5517 5518 5519 5520 5521 5521 5522 5523 5524 5525 5526 5527 5529 5530 5532 5533 5534 5536 5537 5539 5540 5542 5543 5544 5545 5546 5547 5547 5548
5506 5505 5505 5504 5504 5504 5504 5504 5504 5504 5505 5505 5506 5506 5507 5508 5509 5510 5511 5511 5512 5513 5514 5515 5516 5517 5518 5519 5520 5522 5523 5524 5526 5527 5528 5530 5531 5532 5533 5534 5535 5536 5536 5536
5499 5499 5499 5498 5498 5497 5497 5497 5497 5497 5497 5498 5498 5498 5499 5499 5500 5501 5502 5503 5503 5504 5505 5506 5507 5508 5509 5510 5511 5512 5514 5515 5516 5518 5519 5520 5521 5522 5523 5524 5525 5525 5525 5525
5494 5493 5493 5492 5492 5491 5491 5491 5491 5491 5491 5490 5490 5491 5491 5491 5492 5493 5493 5494 5495 5496 5497 5498 5498 5499 5500 5501 5502 5504 5505 5506 5508 5509 5510 5511 5512 5513 5514 5514 5515 5515 5515 5515
5488 5487 5486 5486 5486 5485 5485 5484 5484 5484 5484 5484 5483 5483 5483 5484 5484 5484 5485 5486 5487 5488 5489 5489 5490 5491 5492 5493 5494 5495 5496 5498 5499 5500 5501 5502 5503 5504 5505 5505 5506 5506 5506 5506
5481 5481 5480 5480 5479 5479 5478 5478 5478 5477 5477 5477 5476 5476 5476 5476 5477 5477 5477 5478 5479 5480 5480 5481 5482 5483 5484 5485 5486 5487 5488 5489 5491 5492 5493 5494 5495 5496 5496 5497 5497 5497 5497 5497
5474 5474 5473 5473 5472 5472 5472 5471 5471 5471 5470 5470 5469 5469 5469 5469 5470 5470 5470 5470 5471 5472 5472 5473 5474 5475 5476 5477 5478 5480 5481 5482 5483 5484 5485 5485 5486 5487 5488 5488 5489 5489 5489 5489
5467 5467 5466 5465 5465 5465 5465 5465 5464 5464 5464 5463 5463 5463 5462 5462 5462 5462 5463 5463 5464 5464 5465 5465 5466 5467 5468 5469 5470 5472 5473 5474 5475 5476 5477 5477 5478 5478 5479 5480 5480 5480 5480 5480
5461 5460 5459 5459 5458 5458 5458 5458 5457 5457 5457 5456 5456 5456 5456 5455 5455 5455 5455 5456 5456 5456 5457 5457 5458 5459 5460 5461 5462 5463 5464 5466 5467 5468 5468 5469 5470 5470 5471 5471 5472 5472 5472 5472
5454 5454 5453 5452 5451 5451 5451 5451 5451 5451 5450 5450 5449 5449 5449 5448 5448 5448 5449 5449 5448 5449 5449 5450 5450 5451 5451 5452 5453 5455 5456 5457 5459 5460 5461 5461 5462 5462 5463 5463 5463 5464 5464 5464
5448 5447 5446 5445 5445 5445 5444 5444 5444 5444 5444 5443 5443 5442 5442 5441 5441 5441 5441 5441 5441 5441 5441 5442 5442 5443 5443 5444 5445 5447 5448 5449 5450 5451 5452 5453 5453 5454 5454 5455 5455 5456 5456 5456
5441 5440 5439 5438 5438 5438 5438 5437 5437 5437 5437 5436 5436 5435 5435 5434 5434 5434 5434 5434 5433 5434 5434 5434 5435 5435 5436 5436 5437 5438 5439 5440 5441 5442 5443 5444 5445 5446 5446 5447 5447 5448 5449 5449
5433 5432 5432 5431 5431 5431 5431 5430 5430 5430 5430 5429 5429 5428 5428 5427 5427 5426 5426 5426 5426 5426 5426 5427 5427 5428 5428 5429 5430 5430 5431 5432 5433 5434 5435 5436 5437 5438 5439 5440 5440 5441 5441 5442
5426 5425 5425 5424 5424 5423 5423 5423 5423 5423 5423 5422 5422 5421 5421 5420 5419 5419 5419 5419 5419 5419 5419 5419 5420 5420 5421 5422 5422 5423 5424 5425 5425 5426 5427 5428 5430 5431 5432 5432 5433 5434 5435 5435
5418 5418 5417 5417 5416 5416 5416 5416 5415 5415 5415 5415 5414 5414 5413 5413 5412 5412 5411 5411 5412 5412 5412 5413 5413 5413 5414 5415 5415 5416 5417 5417 5418 5419 5420 5421 5422 5423 5424 5425 5426 5427 5428 5429
5411 5410 5410 5409 5409 5409 5408 5408 5408 5408 5408 5407 5407 5407 5406 5406 5405 5404 5404 5404 5404 5405 5405 5406 5406 5407 5407 5408 5408 5409 5410 5410 5411 5412 5413 5414 5415 5416 5417 5418 5420 5421 5422 5423